Terminal Aerodrome Forecast
Issued by NWS Midland/Odessa, TX

Home | Current Version | Previous Version | Text Only | Print | Product List | Glossary On
Versions: 1 2 3 4 5 6 7 8 9 10 11 12 13 14 15 16 17 18 19 20 21 22 23 24 25 26 27
000
FTUS44 KMAF 011739
TAFMAF
TAF
KMAF 011739Z 0118/0218 15010KT P6SM SKC
     FM011900 17012G17KT P6SM FEW200
     FM020700 17010KT P6SM FEW015
      TEMPO 0211/0215 BKN010=

USA.gov is the U.S. government's official web portal to all federal, state and local government web resources and services.